[[{"header":{"parameterUnit":"m.s-1","parameterCategory":1,"la1":30.2991,"la2":30.254,"lo1":-89.0895,"lo2":-89.0444,"dx":0.0017,"dy":0.0017,"nx":28,"ny":28,"refTime":"2022-11-03T15:00:00:Z","depth":0,"parameterNumber":2,"parameterNumberName":"U-component_of_WINDS"},"data":[0,0,0,0,0,0,0,0,0,0,0,0,0,0,0,0,0,0,0,0,0,0,0,0,0,0,0,0,0,0,0,0,0,0,0,0,0,0,0,0,0,0,0,0,0,0,0,0,0,0,0,0,0,0,0,0,0,0,-3.4087,-3.4088,0,-3.4139,-3.414,-3.414,-3.4036,-3.4033,-3.403,-3.4026,-3.408,-3.4085,-3.4089,0,0,0,0,0,0,0,0,0,0,0,0,0,-3.3898,-3.3902,-3.4087,-3.4088,-3.4088,-3.4139,-3.414,-3.4141,-3.4037,-3.4033,-3.4029,-3.4025,-3.4079,-3.4084,-3.409,0,0,0,0,0,0,0,0,0,0,0,0,0,-3.3968,-3.3903,-3.4087,-3.4043,-3.4039,-3.4139,-3.414,-3.4141,-3.4038,-3.4033,-3.4028,-3.4023,-3.4077,-3.4084,-3.4091,-3.4236,0,0,-3.4112,-3.4115,0,0,0,0,0,0,0,0,-3.3964,-3.3975,-3.4049,-3.4046,-3.4042,-3.4076,-3.4093,-3.4173,-3.4039,-3.4039,-3.4026,-3.402,-3.4083,-3.4089,-3.411,-3.4238,-3.4241,-3.4112,-3.4117,-3.412,-3.4121,0,0,0,0,0,0,0,-3.3959,-3.3972,-3.4108,-3.405,-3.4046,-3.402,-3.4025,-3.4107,-3.4089,-3.4038,-3.4031,-3.4038,-3.408,-3.4104,-3.4111,-3.4241,-3.4112,-3.4118,-3.4123,-3.4125,-3.4491,-3.4497,0,0,0,0,0,0,-3.396,-3.3969,-3.4106,-3.4109,-3.399,-3.4028,-3.4033,-3.407,-3.4088,-3.4085,-3.4043,-3.4033,-3.4095,-3.4103,-3.4112,-3.4284,-3.4119,-3.4126,-3.413,-3.4486,-3.4493,-3.4499,0,0,0,0,0,0,-3.3956,-3.3973,-3.4104,-3.4037,-3.4052,-3.4037,-3.408,-3.4074,-3.4097,-3.4091,-3.4087,-3.407,-3.4091,-3.4102,-3.4206,-3.4284,-3.4129,-3.4135,-3.4479,-3.4488,-3.4496,-3.4628,0,0,0,0,0,0,-3.3951,-3.3973,-3.4028,-3.4039,-3.4056,-3.4197,-3.4085,-3.4079,-3.411,-3.4098,-3.4116,-3.4114,-3.4088,-3.4196,-3.4213,-3.4291,-3.4141,-3.4472,-3.4483,-3.4493,-3.4617,-3.464,-3.466,0,0,0,0,0,-3.3945,-3.4063,-3.4031,-3.4048,-3.4124,-3.4202,-3.4211,-3.4179,-3.4116,-3.4172,-3.4168,-3.4113,-3.4273,-3.4208,-3.4225,-3.4307,-3.4467,-3.448,-3.4492,-3.4607,-3.4636,-3.466,0,0,0,0,0,0,-3.4061,-3.4064,-3.4028,-3.4153,-3.4178,-3.4184,-3.4253,-3.421,-3.4253,-3.424,-3.4198,-3.4203,-3.4315,-3.4321,-3.4248,-3.4449,-3.4359,-3.4376,-3.4441,-3.4468,-3.4489,-3.4486,-3.4147,0,0,0,0,0,-3.4101,-3.4164,-3.4163,-3.4273,-3.4287,-3.4268,-3.4301,-3.4274,-3.4298,-3.4308,-3.4311,-3.4337,-3.4392,-3.443,-3.4481,-3.4617,-3.462,-3.4682,-3.4703,-3.4721,-3.4736,-3.4809,-3.4837,-3.454,-3.454,-3.454,0,0,-3.4185,-3.4194,-3.4236,-3.4297,-3.4313,-3.4379,-3.4278,-3.4352,-3.4401,-3.4319,-3.4417,-3.4421,-3.4446,-3.4567,-3.462,-3.4575,-3.4819,-3.4737,-3.4751,-3.4757,-3.4825,-3.4853,-3.4878,-3.4548,-3.4547,-3.4546,0,0,-3.4371,-3.4384,-3.4478,-3.4496,-3.4522,-3.4508,-3.4531,-3.4544,-3.4543,-3.464,-3.4581,-3.4638,-3.4735,-3.4756,-3.4779,-3.4974,-3.4926,-3.4991,-3.5105,-3.5176,-3.52,-3.522,-3.5291,-3.5316,-3.5006,-3.5007,-3.5007,0,-3.4472,-3.4569,-3.4532,-3.461,-3.4639,-3.4568,-3.4662,-3.4682,-3.4723,-3.4745,-3.4694,-3.4814,-3.4826,-3.4951,-3.4999,-3.502,-3.5045,-3.499,-3.5199,-3.522,-3.5238,-3.5305,-3.5331,-3.5014,-3.5014,-3.5013,-3.5012,0,-3.4692,-3.4761,-3.4833,-3.4875,-3.4912,-3.4998,-3.4974,-3.5015,-3.4985,-3.4977,-3.5078,-3.509,-3.5142,-3.5169,-3.514,-3.5291,-3.5262,-3.5206,-3.5116,-3.5275,-3.5337,-3.5362,-3.5026,-3.5023,-3.5021,-3.5019,0,0,-3.4954,-3.4974,-3.5001,-3.502,-3.5043,-3.5095,-3.5178,-3.5229,-3.5266,-3.5297,-3.5366,-3.545,-3.5398,-3.5425,-3.5397,-3.546,-3.5615,-3.5396,-3.5396,-3.5437,-3.5782,-3.5825,-3.5855,-3.5582,-3.5587,-3.5591,-3.578,0,-3.514,-3.5283,-3.5252,-3.5393,-3.5456,-3.5389,-3.5462,-3.5484,-3.5479,-3.5531,-3.5525,-3.5585,-3.5512,-3.5528,-3.5587,-3.5583,-3.5683,-3.5569,-3.5647,-3.565,-3.5644,-3.5887,-3.5933,-3.6111,-3.5804,-3.5808,-3.5811,0,-3.5376,-3.5416,-3.5564,-3.5577,-3.5602,-3.5668,-3.5712,-3.5764,-3.5787,-3.5779,-3.5809,-3.5769,-3.5852,-3.576,-3.5874,-3.5797,-3.5827,-3.583,-3.5836,-3.5843,-3.5741,-3.5902,-3.6167,-3.6194,-3.5848,-3.5845,-3.5843,0,-3.5553,-3.5644,-3.5744,-3.5762,-3.5779,-3.5827,-3.5837,-3.5855,-3.5888,-3.5927,-3.5948,-3.5996,-3.6023,-3.6061,-3.6036,-3.5971,-3.6155,-3.606,-3.6151,-3.6152,-3.6193,-3.6191,-3.6468,-3.6211,-3.621,-3.621,-3.6209,0,-3.5764,-3.5858,-3.5824,-3.5886,-3.5989,-3.5951,-3.6054,-3.6056,-3.6073,-3.6134,-3.6078,-3.6137,-3.6099,-3.6155,-3.6135,-3.6233,-3.6245,-3.6241,-3.6235,-3.6247,-3.6248,-3.6267,-3.6254,-3.6217,-3.6215,-3.6214,-3.6213,0,-3.5981,-3.5962,-3.6067,-3.6075,-3.6079,-3.6155,-3.6161,-3.6219,-3.6209,-3.6287,-3.6304,-3.6289,-3.6351,-3.6329,-3.6396,-3.6383,-3.6508,-3.6485,-3.65,-3.6495,-3.6587,-3.6579,-3.6887,-3.6925,-3.6642,-3.6645,-3.6647,0,-3.6117,-3.6188,-3.6203,-3.6241,-3.6254,-3.6314,-3.6348,-3.6314,-3.6351,-3.6383,-3.6437,-3.6495,-3.6539,-3.6643,-3.6638,-3.6689,-3.6667,-3.6772,-3.6675,-3.6685,-3.667,-3.6667,-3.6674,-3.6792,-3.6795,-3.6797,-3.68,0,-3.6362,-3.635,-3.64,-3.6448,-3.6489,-3.6525,-3.6556,-3.6589,-3.6557,-3.6601,-3.6665,-3.6699,-3.6768,-3.6826,-3.6872,-3.6881,-3.6836,-3.683,-3.6854,-3.6867,-3.6874,-3.6873,-3.6554,-3.6823,-3.6821,-3.6819,-3.6818,-3.6817,-3.6544,-3.6603,-3.6624,-3.6682,-3.6702,-3.6732,-3.6787,-3.6784,-3.6836,-3.6889,-3.6866,-3.6939,-3.6961,-3.7018,-3.7034,-3.7091,-3.7051,-3.7085,-3.7094,-3.7103,-3.7116,-3.6864,-3.7099,-3.7098,-3.7098,-3.7097,-3.7097,0,-3.6787,-3.6797,-3.6851,-3.6896,-3.6942,-3.6894,-3.6926,-3.6967,-3.7033,-3.7057,-3.7102,-3.7175,-3.7231,-3.7231,-3.7283,-3.7329,-3.731,-3.7344,-3.7341,-3.7344,-3.7148,-3.7123,-3.7359,-3.7359,-3.7359,-3.7359,-3.7359,-3.7359,-3.6919,-3.7018,-3.7007,-3.7115,-3.7124,-3.7196,-3.7218,-3.7246,-3.7265,-3.735,-3.7396,-3.7395,-3.741,-3.7463,-3.7512,-3.7511,-3.7533,-3.7576,-3.7567,-3.7384,-3.7358,-3.7333,-3.7309,-3.7581,-3.7581,-3.7758,-3.776,-3.7761]},{"header":{"parameterUnit":"m.s-1","parameterCategory":1,"la1":30.2991,"la2":30.254,"lo1":-89.0895,"lo2":-89.0444,"dx":0.0017,"dy":0.0017,"nx":28,"ny":28,"refTime":"2022-11-03T15:00:00:Z","depth":0,"parameterNumber":3,"parameterNumberName":"V-component_of_WINDS"},"data":[0,0,0,0,0,0,0,0,0,0,0,0,0,0,0,0,0,0,0,0,0,0,0,0,0,0,0,0,0,0,0,0,0,0,0,0,0,0,0,0,0,0,0,0,0,0,0,0,0,0,0,0,0,0,0,0,0,0,-2.3042,-2.3042,0,-2.3041,-2.3041,-2.3041,-2.3001,-2.3,-2.2999,-2.2998,-2.2996,-2.2997,-2.2998,0,0,0,0,0,0,0,0,0,0,0,0,0,-2.3008,-2.3009,-2.3042,-2.3042,-2.3042,-2.3041,-2.3041,-2.3041,-2.3001,-2.3,-2.2998,-2.2997,-2.2996,-2.2997,-2.2998,0,0,0,0,0,0,0,0,0,0,0,0,0,-2.3016,-2.3009,-2.3042,-2.3022,-2.302,-2.3041,-2.3041,-2.3041,-2.3001,-2.3,-2.2998,-2.2997,-2.2996,-2.2997,-2.2998,-2.3039,0,0,-2.3003,-2.3003,0,0,0,0,0,0,0,0,-2.3016,-2.3018,-2.3025,-2.3023,-2.3021,-2.3019,-2.3029,-2.304,-2.3002,-2.3008,-2.2998,-2.2996,-2.3005,-2.3006,-2.3009,-2.3039,-2.3039,-2.3003,-2.3004,-2.3004,-2.3005,0,0,0,0,0,0,0,-2.3015,-2.3018,-2.3042,-2.3025,-2.3023,-2.3012,-2.3012,-2.3031,-2.3016,-2.3008,-2.3005,-2.3005,-2.3004,-2.3008,-2.3009,-2.3038,-2.3003,-2.3004,-2.3005,-2.3005,-2.3099,-2.3101,0,0,0,0,0,0,-2.3018,-2.3017,-2.3042,-2.3042,-2.3015,-2.3014,-2.3014,-2.3022,-2.3015,-2.3013,-2.3007,-2.3003,-2.3006,-2.3007,-2.3009,-2.3054,-2.3004,-2.3006,-2.3006,-2.3097,-2.3099,-2.3101,0,0,0,0,0,0,-2.3017,-2.302,-2.3042,-2.3029,-2.3031,-2.3017,-2.3026,-2.3023,-2.3026,-2.3014,-2.3012,-2.3013,-2.3005,-2.3007,-2.3031,-2.3053,-2.3006,-2.3008,-2.3096,-2.3098,-2.31,-2.3146,0,0,0,0,0,0,-2.3016,-2.302,-2.3036,-2.3029,-2.3032,-2.3065,-2.3027,-2.3024,-2.3029,-2.3025,-2.302,-2.3018,-2.3004,-2.3029,-2.3032,-2.3054,-2.3009,-2.3093,-2.3097,-2.31,-2.3143,-2.315,-2.3156,0,0,0,0,0,-2.3015,-2.3049,-2.3037,-2.304,-2.3051,-2.3066,-2.3068,-2.3051,-2.3031,-2.3046,-2.3038,-2.3018,-2.3051,-2.3032,-2.3035,-2.3058,-2.3092,-2.3096,-2.3099,-2.314,-2.3148,-2.3156,0,0,0,0,0,0,-2.3059,-2.3048,-2.3034,-2.3067,-2.3068,-2.306,-2.3078,-2.3061,-2.3068,-2.3064,-2.3042,-2.3042,-2.3069,-2.3066,-2.3046,-2.3096,-2.3068,-2.3072,-2.3097,-2.3105,-2.3112,-2.3112,-2.301,0,0,0,0,0,-2.3073,-2.3087,-2.3076,-2.3106,-2.3107,-2.3093,-2.3099,-2.3086,-2.3086,-2.3086,-2.308,-2.3081,-2.3091,-2.3098,-2.3107,-2.3142,-2.314,-2.3159,-2.3166,-2.3172,-2.3176,-2.3192,-2.3201,-2.3113,-2.3113,-2.3113,0,0,-2.3101,-2.3097,-2.3107,-2.3115,-2.3114,-2.3128,-2.3093,-2.311,-2.312,-2.3089,-2.3111,-2.3107,-2.3106,-2.3135,-2.3148,-2.3134,-2.3199,-2.3176,-2.3181,-2.3182,-2.3197,-2.3205,-2.3213,-2.3116,-2.3115,-2.3115,0,0,-2.3159,-2.3158,-2.3182,-2.3181,-2.318,-2.317,-2.3176,-2.317,-2.3165,-2.3188,-2.3163,-2.3175,-2.3193,-2.3193,-2.3196,-2.3252,-2.3233,-2.3256,-2.3291,-2.3308,-2.3315,-2.332,-2.334,-2.3347,-2.326,-2.326,-2.326,0,-2.3194,-2.3215,-2.3197,-2.3214,-2.3218,-2.319,-2.3213,-2.3214,-2.3216,-2.3218,-2.3202,-2.3224,-2.3221,-2.325,-2.3263,-2.3267,-2.3272,-2.3256,-2.3315,-2.3321,-2.3326,-2.3344,-2.3351,-2.3263,-2.3262,-2.3262,-2.3262,0,-2.3258,-2.3272,-2.3292,-2.3294,-2.3299,-2.332,-2.3304,-2.3312,-2.3299,-2.329,-2.3312,-2.3308,-2.3315,-2.3321,-2.3308,-2.3347,-2.3338,-2.3319,-2.329,-2.3337,-2.3354,-2.3361,-2.3266,-2.3265,-2.3265,-2.3264,0,0,-2.3344,-2.3335,-2.3342,-2.3342,-2.3338,-2.3348,-2.3367,-2.3374,-2.338,-2.3382,-2.3397,-2.3413,-2.3394,-2.3397,-2.3384,-2.3398,-2.3442,-2.3377,-2.3377,-2.3389,-2.3484,-2.3497,-2.3506,-2.3429,-2.3431,-2.3432,-2.3483,0,-2.34,-2.3432,-2.3415,-2.3449,-2.3461,-2.3433,-2.345,-2.3449,-2.3441,-2.345,-2.3441,-2.3452,-2.3428,-2.3429,-2.3442,-2.3434,-2.3461,-2.343,-2.3442,-2.3443,-2.3443,-2.3515,-2.353,-2.3579,-2.349,-2.3491,-2.3492,0,-2.3469,-2.3473,-2.3508,-2.35,-2.3505,-2.352,-2.3523,-2.3533,-2.353,-2.3523,-2.3526,-2.3508,-2.3525,-2.3497,-2.352,-2.3499,-2.3503,-2.35,-2.3501,-2.3501,-2.347,-2.3516,-2.3594,-2.3601,-2.3502,-2.3501,-2.35,0,-2.3528,-2.3542,-2.3564,-2.3565,-2.3556,-2.3567,-2.3564,-2.356,-2.3565,-2.3568,-2.357,-2.3575,-2.3578,-2.3582,-2.3567,-2.3548,-2.3591,-2.3562,-2.3585,-2.3586,-2.3596,-2.3595,-2.3675,-2.36,-2.3599,-2.3599,-2.3599,0,-2.3591,-2.3613,-2.359,-2.3604,-2.3627,-2.3607,-2.3631,-2.3625,-2.3621,-2.3633,-2.361,-2.3621,-2.3599,-2.3608,-2.3596,-2.3616,-2.3618,-2.3612,-2.3609,-2.3614,-2.3615,-2.3616,-2.3612,-2.3601,-2.3601,-2.36,-2.36,0,-2.366,-2.3646,-2.3668,-2.3657,-2.3655,-2.3673,-2.3664,-2.3676,-2.3666,-2.3681,-2.3683,-2.3668,-2.3677,-2.3661,-2.3669,-2.3661,-2.3688,-2.368,-2.3689,-2.3686,-2.371,-2.3708,-2.3793,-2.3803,-2.3722,-2.3723,-2.3724,0,-2.3701,-2.3718,-2.3708,-2.3714,-2.3712,-2.3722,-2.3726,-2.3707,-2.3712,-2.3709,-2.3721,-2.3728,-2.3733,-2.3749,-2.3738,-2.3743,-2.3734,-2.3764,-2.3735,-2.3739,-2.3734,-2.3733,-2.3733,-2.377,-2.3771,-2.3771,-2.3772,0,-2.3775,-2.3767,-2.3774,-2.3777,-2.3782,-2.3785,-2.3785,-2.3791,-2.377,-2.3777,-2.3786,-2.3789,-2.3796,-2.3803,-2.3806,-2.3802,-2.3784,-2.3781,-2.3787,-2.3792,-2.3796,-2.3793,-2.3704,-2.3779,-2.3778,-2.3778,-2.3778,-2.3777,-2.3831,-2.3844,-2.3839,-2.3846,-2.3844,-2.3845,-2.3855,-2.3846,-2.3853,-2.3857,-2.3845,-2.3856,-2.3852,-2.3853,-2.3851,-2.386,-2.3847,-2.3855,-2.3857,-2.3859,-2.3862,-2.3795,-2.386,-2.386,-2.386,-2.386,-2.3859,0,-2.3903,-2.3898,-2.3905,-2.3906,-2.3912,-2.3893,-2.3892,-2.3898,-2.3908,-2.3906,-2.3911,-2.392,-2.3926,-2.3916,-2.392,-2.3929,-2.392,-2.3931,-2.3929,-2.3929,-2.3874,-2.3869,-2.3937,-2.3937,-2.3937,-2.3937,-2.3937,-2.3937,-2.3941,-2.3961,-2.3951,-2.3969,-2.3964,-2.3975,-2.3976,-2.3976,-2.3973,-2.3985,-2.399,-2.3983,-2.3977,-2.398,-2.3985,-2.3982,-2.3984,-2.3997,-2.3991,-2.394,-2.3933,-2.3925,-2.392,-2.3998,-2.3998,-2.4044,-2.4045,-2.4045]}]]